Weather in Mostovskoe

Russia / Sverdlovsk Oblast     57°09′48″N   60°38′58″E
temp.,
°C
wind,
m/s
gust,
m/s
humid.,
%
clouds,
%
prec.,
mm/h
press.,
hPa
HPBL,
m
27 july, tue
tue2723:00+11wsw38895 0.1 1016164
02:00+12wsw31081100 0.0 1014255
05:00+10wsw311865 0.0 1013259
08:00+16wsw5116435 0.0 1011471
11:00+17w51375100 0.4 10101252
14:00+16w697436 0.6 1010939
17:00+19wnw595148 0.8 10081846
20:00+16nw49515 0.0 1009890
28 july, wed
wed2823:00+9nw27779 0.0 1011137
02:00+7wnw26874 0.0 1011114
05:00+5w389038 0.0 1011167
08:00+11w4760100 0.0 10101111
11:00+12wnw585594 0.0 10101505
14:00+13wnw675562 0.3 10101448
17:00+15wnw5846100 0.3 10102179
20:00+12nw48625 0.1 1011854
29 july, thu
thu2923:00+7w278360 0.1 1012124
02:00+6w398899 0.0 1011221
05:00+5wsw28935 0.0 1011195
08:00+11wsw4126398 0.0 1010488
11:00+18w5104874 0.0 10081822
14:00+18w51045100 0.0 10071766
17:00+21w6114195 0.1 10062647
20:00+15sw398128 0.3 1006258
30 july, fri
fri3023:00+12sw38979 0.6 1007153
02:00+11sw3109625 0.1 1007186
05:00+12wsw3109950 0.1 1006315
08:00+15wsw248855 0.0 1006340
11:00+20s246137 0.3 10051215
14:00+22s3347100 0.1 10031819
17:00+20sw356554 0.1 1003367
20:00+18w497226 0.1 1003701
31 july, sat
sat3123:00+14sw39965 0.1 1004222
02:00+15wsw413905 0.0 1003539
05:00+14w4119777 0.0 1005563
08:00+18wnw47759 0.0 1007657
11:00+23wnw46555 0.0 10071171
14:00+26wnw4641100 0.0 10072335
17:00+25w2551100 0.0 1008429
20:00+21sw236863 0.0 100849